Location: Unspecified
(0.0000°N, 0.0000°E)
Time: 14:05:04
(UTC+00:00)

LightSail 2 - Pass Details

Date: 15 September 2019
Orbit: 699 x 732 km, 24.0° (Epoch: 17 September)

Event Time Altitude Azimuth Distance (km) Brightness Sun altitude
Exits shadow 05:05:39 16° 283° (WNW) 1,767 6.6 -12.4°
Maximum altitude 05:08:51 30° 336° (NNW) 1,226 6.2 -11.6°
Drops below altitude 10° 05:13:19 10° 37° (NE) 2,158 8.2 -10.5°
Sets 05:16:00 0° 48° (NE) 3,080 9.3 -9.8°
